Regional Weather Roundup
Issued by NWS Grand Forks, ND

Home | Current Version | Previous Version | Graphics & Text | Print | Product List | Glossary On
Versions: 1 2 3 4 5 6 7 8 9 10 11 12 13 14 15 16 17 18 19 20 21 22 23 24 25 26 27 28 29 30 31 32 33 34 35 36 37 38 39 40 41 42 43 44 45 46 47 48 49 50
411
ASUS43 KFGF 240610
RWRFGF
PRAIRIE TO PINES  WEATHER ROUNDUP
NATIONAL WEATHER SERVICE EASTERN NORTH DAKOTA/GRAND FORKS ND
100 AM CDT MON APR 24 2017

 **SATELLITE DATA USED TO AUGMENT SKY COVER AT AUTOMATED STATIONS**
 *****  WEATHER ACROSS EASTERN NORTH DAKOTA  *****

CITY           SKY/WX    TMP DP  RH WIND       PRES   REMARKS
GRAND FORKS      N/A     34  31  88 NE14      29.91F WCI  25
6HR MIN TEMP:  33; 6HR MAX TEMP:  34; 6HR PCP: TRACE;

GRAND FRKS AFB CLOUDY    32  29  89 E14       29.91F WCI  22
DEVILS LAKE    CLOUDY    30  26  85 E18       29.89F WCI  18
6HR MIN TEMP:  28; 6HR MAX TEMP:  30; 6HR PCP: TRACE;

FARGO          FAIR      39  34  82 E14       29.81F
WAHPETON ARPT  FAIR      39  32  75 E13       29.78F
$$

 ***** WEATHER ACROSS CENTRAL AND WESTERN NORTH DAKOTA  *****

CITY           SKY/WX    TMP DP  RH WIND       PRES   REMARKS
BISMARCK       CLOUDY    33  30  88 E17       29.76F WCI  22
6HR MIN TEMP:  33; 6HR MAX TEMP:  37;

MINOT          CLOUDY    31  26  82 E17       29.84F WCI  19
6HR MIN TEMP:  31; 6HR MAX TEMP:  31;

JAMESTOWN      CLOUDY    32  30  92 NE18      29.78F WCI  20
6HR MIN TEMP:  32; 6HR MAX TEMP:  33;

MINOT AFB      CLOUDY    31  25  78 E15       29.84F WCI  20
GARRISON         N/A     29  27  92 E18       29.79F WCI  16
WILLISTON      CLOUDY    31  27  85 SE12      29.82R WCI  22
6HR MIN TEMP:  31; 6HR MAX TEMP:  33;

DICKINSON      FOG       29  28  96 E17       29.71R VSB 1/4 WCI  17
6HR MIN TEMP:  29; 6HR MAX TEMP:  36;

HETTINGER      FOG       32  32 100 S9        29.78R VSB 1/4 WCI  24
6HR MIN TEMP:  32; 6HR MAX TEMP:  43;

$$

 *****  OTHER AIRPORT OBSERVATIONS IN OUR AREA  *****

CITY           SKY/WX    TMP DP  RH WIND       PRES   REMARKS
WALHALLA       NOT AVBL
GRAFTON AIRPOR CLOUDY    32  27  80 E14       29.98F WCI  22
VALLEY CITY AR CLOUDY    32  32 100 NE15G23   29.80F WCI  22
CANDO          NOT AVBL
CAVALIER APRT  MOCLDY    34  18  51 NE7       29.98S
GWINNER        CLEAR     37  36  93 MISG      29.74F
SHEYENNE NWR     N/A     38  34  86 E13       29.95S
ROLLA          CLOUDY    30  18  59 E15G21    29.92F WCI  19
 ***** THE ABOVE OBSERVATIONS ARE NON NWS ARE NOT QUALITY
       CONTROLLED AND MAY MIS-REPORT RAIN FOR SNOW...
$$

  *****  WEATHER ACROSS NORTHERN MINNESOTA  *****

CITY           SKY/WX    TMP DP  RH WIND       PRES   REMARKS
FLAG ISLAND    MOCLDY    34  16  47 E8        30.02F
WARROAD        CLOUDY    36  19  51 E20       30.00F
ROSEAU         CLOUDY    36  23  60 E8        29.99F
HALLOCK        CLOUDY    36  19  51 E9        29.97F
THF RVR FALLS  MIX PCPN  32  29  88 E16G24    29.93S WCI  21
6HR MIN TEMP:  30; 6HR MAX TEMP:  32; 6HR PCP:  0.01;

BAUDETTE       CLOUDY    33  23  66 SE6       30.01F
6HR MIN TEMP:  32; 6HR MAX TEMP:  37;

WASKISH        CLOUDY    32  30  93 E9        29.99R WCI  24
CROOKSTON      MOCLDY    36  30  80 E16G22    29.91S
STEPHEN NDAWN    N/A     34  25  69 E13         N/A  WCI  25
GREENBUSH NDAW   N/A     34  25  69 E9          N/A
$$
  *****  WEATHER ACROSS CENTRAL AND WEST MINNESOTA  *****

CITY           SKY/WX    TMP DP  RH WIND       PRES   REMARKS
FOSSTON        CLOUDY    34  28  80 E15G24    29.88F WCI  24
BEMIDJI        MOCLDY    33  30  88 E13       29.92F WCI  24
PARK RAPIDS    MOCLDY    34  26  72 E14G22    29.88F WCI  25
6HR MIN TEMP:  34; 6HR MAX TEMP:  36;

ELBOW LAKE     FAIR      38  34  84 SE28G35   29.77F
6HR MIN TEMP:  38; 6HR MAX TEMP:  52;

WADENA         FAIR      34  27  75 E16G22    29.86F WCI  23
DETROIT LAKES  FAIR      36  32  87 SE15G24   29.83F
MOORHEAD       FAIR      39  34  81 E15G22    29.80F
FERGUS FALLS   FAIR      37  32  81 E16G26    29.77F
MORRIS MN      FAIR      41  36  81 E28       29.75F
STAPLES        FAIR      34  27  75 E8        29.88F
$$
  *****  WEATHER ELSEWHERE ACROSS MINNESOTA  *****

CITY           SKY/WX    TMP DP  RH WIND       PRES   REMARKS
DULUTH         CLOUDY    33  24  69 E18G26    30.00F WCI  22
6HR MIN TEMP:  31; 6HR MAX TEMP:  33;

INTRNTL FALLS  CLOUDY    33  25  72 E8        30.03F
6HR MIN TEMP:  32; 6HR MAX TEMP:  37;

ELY            LGT SNOW  30  28  93 E6        30.05F WCI  24
CLOQUET        CLOUDY    34  23  64 E13G24    29.98F WCI  25
WHEATON        FAIR      41  36  81 E16       29.76F
BRAINERD       FAIR      33  25  72 E12G20    29.92F WCI  24
6HR MIN TEMP:  33; 6HR MAX TEMP:  41;

HIBBING        CLOUDY    30  26  85 E13       30.00F WCI  20
6HR MIN TEMP:  30; 6HR MAX TEMP:  34; 6HR PCP: TRACE;

ALEXANDRIA     FAIR      36  32  85 E18G25    29.83F
6HR MIN TEMP:  36; 6HR MAX TEMP:  50;

SAINT CLOUD    FAIR      37  32  82 E9G16     29.88F
6HR MIN TEMP:  37; 6HR MAX TEMP:  52;

MINNEAPOLIS    FAIR      51  39  63 NE5       29.87F
6HR MIN TEMP:  51; 6HR MAX TEMP:  68;

$$

  *****  WEATHER ACROSS SOUTH DAKOTA  *****

CITY           SKY/WX    TMP DP  RH WIND       PRES   REMARKS
SIOUX FALLS    FAIR      57  32  38 S21G29    29.75F
6HR MIN TEMP:  57; 6HR MAX TEMP:  70;

BROOKINGS      FAIR      56  31  38 S14       29.73F
WATERTOWN      FAIR      52  35  52 S13       29.69F
6HR MIN TEMP:  52; 6HR MAX TEMP:  67;

HURON          FAIR      56  34  43 S15       29.64F
6HR MIN TEMP:  55; 6HR MAX TEMP:  72;

SISSETON         N/A     42  38  85 E6        29.74F
ABERDEEN       FAIR      45  38  76 NE9       29.63F
6HR MIN TEMP:  44; 6HR MAX TEMP:  69;

MITCHELL       FAIR      57  34  41 S16       29.68F
PIERRE         FAIR      46  40  79 N7        29.56F
6HR MIN TEMP:  46; 6HR MAX TEMP:  73;

MOBRIDGE       CLOUDY    39  32  76 NE18G24   29.63F
RAPID CITY     FAIR      44  41  89 N17       29.58F
6HR MIN TEMP:  44; 6HR MAX TEMP:  68; 6HR PCP: TRACE;

$$

  *****  SOME WEATHER IN NEARBY STATES *****

CITY           SKY/WX    TMP DP  RH WIND       PRES   REMARKS
GLASGOW MT     CLOUDY    32  31  96 E18       29.73F FOG     WCI  20
6HR MIN TEMP:  32; 6HR MAX TEMP:  40; 6HR PCP:  0.02;

GREAT FALLS MT FAIR      40  35  83 SE9       29.70F
6HR MIN TEMP:  40; 6HR MAX TEMP:  52; 6HR PCP: TRACE;

CHEYENNE WY    FAIR      47  34  60 W6        29.69F
6HR MIN TEMP:  47; 6HR MAX TEMP:  63;

SCOTTSBLUFF NE FAIR      55  38  52 SE14      29.58F
6HR MIN TEMP:  55; 6HR MAX TEMP:  75;

OMAHA NE       FAIR      57  35  43 S10       29.88S
6HR MIN TEMP:  57; 6HR MAX TEMP:  71;

DES MOINES IA  FAIR      53  34  48 S8        29.94F
6HR MIN TEMP:  53; 6HR MAX TEMP:  68;

DAVENPORT IA   FAIR      49  33  54 SE5       29.99F
6HR MIN TEMP:  49; 6HR MAX TEMP:  69;

CHICAGO IL     MOCLDY    43  38  82 NE7       30.04F
6HR MIN TEMP:  43; 6HR MAX TEMP:  65;

EAU CLAIRE WI  FAIR      50  42  74 E13       29.93S
6HR MIN TEMP:  50; 6HR MAX TEMP:  65;

LA CROSSE WI   FAIR      57  40  52 SE9       29.94S
6HR MIN TEMP:  56; 6HR MAX TEMP:  70;

$$

  *****  SOME NATIONAL WEATHER *****

CITY           SKY/WX    TMP DP  RH WIND       PRES   REMARKS
LA GUARDIA NY  MOCLDY    52  40  63 S3        30.12F
6HR MIN TEMP:  52; 6HR MAX TEMP:  53;

RALEIGH NC     LGT RAIN  53  51  93 E10       29.92F FOG
6HR MIN TEMP:  53; 6HR MAX TEMP:  53; 6HR PCP: TRACE;

ATLANTA GA     DRIZZLE   54  53  97 NE10      29.78F FOG
6HR MIN TEMP:  54; 6HR MAX TEMP:  63; 6HR PCP: TRACE;

NEW ORLEANS LA FAIR      54  51  90 W6        29.95F
6HR MIN TEMP:  54; 6HR MAX TEMP:  62;

OKLAHOMA CITY  FAIR      47  39  74 SE6       29.95F
6HR MIN TEMP:  46; 6HR MAX TEMP:  68;

ALBUQUERQUE NM MOCLDY    62  29  28 S12       29.92S
6HR MIN TEMP:  62; 6HR MAX TEMP:  76;

SALT LAKE CITY FAIR      53  40  61 SE13      29.79F
6HR MIN TEMP:  52; 6HR MAX TEMP:  63;

LOS ANGELES CA FAIR      60  51  72 W8        29.88R
6HR MIN TEMP:  59; 6HR M



USA.gov is the U.S. government's official web portal to all federal, state and local government web resources and services.